SCF254D RKSI-ZSQD

Flight info

Callsign SCF254D
Flight time 1h 6m
Altitude 30200
Route NOPIK2Y NOPIK Y697 AGAVO/K0789S0920 W209 LATUX LAT81A
Aircraft A320/M-SDE3FGHIRWY/LB1

Departure

Time 2026-04-16 06:49
Airport Incheon International Airport (RKSI)

Arrival

Time 2026-04-16 07:55
Airport Qingdao Jiaodong International Airport (ZSQD)
Time Latitude Longitude Altitude Speed Heading
2026-04-16 06:41 37.45011 126.44482 60 ft 0 kts 94°
2026-04-16 06:42 37.45012 126.44464 33 ft 2 kts 94°
2026-04-16 06:42 37.45013 126.44442 33 ft 2 kts 94°
2026-04-16 06:42 37.45014 126.44421 33 ft 2 kts 94°
2026-04-16 06:43 37.45016 126.44399 33 ft 2 kts 94°
2026-04-16 06:43 37.45017 126.44378 33 ft 2 kts 94°
2026-04-16 06:43 37.45022 126.44358 33 ft 2 kts 155°
2026-04-16 06:43 37.45023 126.44357 30 ft 0 kts 159°
2026-04-16 06:44 37.45022 126.44358 33 ft 2 kts 159°
2026-04-16 06:45 37.44977 126.44349 33 ft 9 kts 245°
2026-04-16 06:45 37.45005 126.44281 33 ft 10 kts 311°
2026-04-16 06:45 37.45026 126.44197 33 ft 11 kts 258°
2026-04-16 06:45 37.44981 126.44108 33 ft 13 kts 234°
2026-04-16 06:46 37.44904 126.44093 33 ft 12 kts 147°
2026-04-16 06:46 37.44839 126.44151 33 ft 11 kts 144°
2026-04-16 06:46 37.44780 126.44204 32 ft 13 kts 144°
2026-04-16 06:46 37.44683 126.44289 33 ft 21 kts 146°
2026-04-16 06:47 37.44557 126.44400 31 ft 18 kts 143°
2026-04-16 06:47 37.44463 126.44366 33 ft 16 kts 234°
2026-04-16 06:47 37.44396 126.44246 31 ft 17 kts 234°
2026-04-16 06:47 37.44369 126.44154 33 ft 10 kts 302°
2026-04-16 06:48 37.44398 126.44125 32 ft 0 kts 324°
2026-04-16 06:48 37.44446 126.44082 33 ft 31 kts 325°
2026-04-16 06:48 37.44825 126.43741 33 ft 99 kts 325°
2026-04-16 06:48 37.45540 126.43107 33 ft 150 kts 325°
2026-04-16 06:49 37.46485 126.42280 277 ft 173 kts 323°
2026-04-16 06:49 37.47479 126.41347 818 ft 184 kts 315°
2026-04-16 06:49 37.48366 126.40129 1391 ft 194 kts 308°
2026-04-16 06:49 37.49250 126.38755 1844 ft 210 kts 307°
2026-04-16 06:50 37.50172 126.37225 2177 ft 231 kts 300°
2026-04-16 06:50 37.50791 126.35257 2539 ft 254 kts 278°
2026-04-16 06:50 37.50899 126.32978 3150 ft 267 kts 265°
2026-04-16 06:50 37.50816 126.30618 4002 ft 272 kts 265°
2026-04-16 06:51 37.50744 126.28223 4893 ft 276 kts 266°
2026-04-16 06:51 37.50707 126.25794 5774 ft 279 kts 267°
2026-04-16 06:51 37.50709 126.23333 6671 ft 282 kts 268°
2026-04-16 06:51 37.50738 126.20846 7513 ft 284 kts 265°
2026-04-16 06:52 37.50470 126.18394 8356 ft 283 kts 250°
2026-04-16 06:52 37.49716 126.16128 9217 ft 280 kts 235°
2026-04-16 06:52 37.48646 126.14075 9889 ft 281 kts 232°
2026-04-16 06:52 37.47566 126.12032 10071 ft 280 kts 232°
2026-04-16 06:53 37.46447 126.09918 10122 ft 305 kts 232°
2026-04-16 06:53 37.45240 126.07638 10123 ft 314 kts 233°
2026-04-16 06:53 37.43997 126.05269 10330 ft 331 kts 233°
2026-04-16 06:53 37.42703 126.02796 10744 ft 346 kts 233°
2026-04-16 06:54 37.41542 126.00090 11316 ft 357 kts 245°
2026-04-16 06:54 37.40854 125.97061 11997 ft 365 kts 257°
2026-04-16 06:54 37.40678 125.93850 12706 ft 371 kts 266°
2026-04-16 06:54 37.40652 125.90593 13426 ft 374 kts 266°
2026-04-16 06:55 37.40619 125.87314 14109 ft 377 kts 266°
2026-04-16 06:55 37.40579 125.84014 14734 ft 379 kts 266°
2026-04-16 06:55 37.40537 125.80693 15366 ft 381 kts 266°
2026-04-16 06:55 37.40497 125.77398 15987 ft 382 kts 266°
2026-04-16 06:56 37.40452 125.74050 16616 ft 384 kts 266°
2026-04-16 06:56 37.40403 125.70687 17237 ft 385 kts 266°
2026-04-16 06:56 37.40357 125.67311 17830 ft 387 kts 266°
2026-04-16 06:56 37.40314 125.63915 18413 ft 389 kts 266°
2026-04-16 06:57 37.40273 125.60504 18920 ft 391 kts 266°
2026-04-16 06:57 37.40230 125.57081 19456 ft 392 kts 266°
2026-04-16 06:57 37.40185 125.53651 19975 ft 393 kts 266°
2026-04-16 06:57 37.40133 125.50218 20502 ft 393 kts 266°
2026-04-16 06:58 37.40076 125.46776 21043 ft 394 kts 265°
2026-04-16 06:58 37.40021 125.43335 21559 ft 394 kts 265°
2026-04-16 06:58 37.39966 125.39881 22064 ft 395 kts 265°
2026-04-16 06:58 37.39909 125.36422 22559 ft 396 kts 265°
2026-04-16 06:59 37.39854 125.32954 23040 ft 397 kts 266°
2026-04-16 06:59 37.39800 125.29481 23502 ft 398 kts 266°
2026-04-16 06:59 37.39747 125.25994 23912 ft 399 kts 266°
2026-04-16 06:59 37.39689 125.22501 24305 ft 400 kts 266°
2026-04-16 07:00 37.39630 125.19000 24691 ft 401 kts 266°
2026-04-16 07:00 37.39570 125.15491 25060 ft 402 kts 266°
2026-04-16 07:00 37.39510 125.11971 25424 ft 403 kts 266°
2026-04-16 07:01 37.39386 125.04907 26114 ft 405 kts 267°
2026-04-16 07:01 37.39320 125.01358 26418 ft 407 kts 267°
2026-04-16 07:01 37.39250 124.97794 26734 ft 408 kts 268°
2026-04-16 07:01 37.39180 124.94220 27058 ft 409 kts 268°
2026-04-16 07:02 37.39111 124.90642 27373 ft 410 kts 268°
2026-04-16 07:02 37.39040 124.87049 27682 ft 412 kts 268°
2026-04-16 07:02 37.38971 124.83446 27989 ft 413 kts 268°
2026-04-16 07:02 37.38903 124.79836 28293 ft 414 kts 268°
2026-04-16 07:03 37.38833 124.76223 28707 ft 412 kts 268°
2026-04-16 07:03 37.38758 124.72630 29178 ft 410 kts 268°
2026-04-16 07:03 37.38680 124.69063 29661 ft 407 kts 269°
2026-04-16 07:03 37.38599 124.65523 30126 ft 404 kts 269°
2026-04-16 07:04 37.38521 124.62039 30270 ft 403 kts 269°
2026-04-16 07:04 37.38362 124.55005 30303 ft 402 kts 269°
2026-04-16 07:05 37.38207 124.47980 30302 ft 402 kts 269°
2026-04-16 07:05 37.37279 124.41076 30300 ft 405 kts 252°
2026-04-16 07:06 37.34557 124.34821 30299 ft 411 kts 242°
2026-04-16 07:06 37.31509 124.28754 30291 ft 410 kts 242°
2026-04-16 07:07 37.28472 124.22698 30288 ft 410 kts 242°
2026-04-16 07:07 37.25437 124.16645 30271 ft 410 kts 241°
2026-04-16 07:08 37.22369 124.10608 30268 ft 411 kts 240°
2026-04-16 07:08 37.19198 124.04643 30270 ft 411 kts 240°
2026-04-16 07:09 37.15472 123.99152 30269 ft 421 kts 225°
2026-04-16 07:09 37.10614 123.94932 30275 ft 426 kts 219°
2026-04-16 07:10 37.05708 123.90795 30287 ft 425 kts 219°
2026-04-16 07:10 37.00812 123.86651 30290 ft 425 kts 219°
2026-04-16 07:11 36.95908 123.82523 30266 ft 425 kts 219°
2026-04-16 07:11 36.91003 123.78414 30268 ft 425 kts 219°
2026-04-16 07:12 36.86090 123.74303 30276 ft 425 kts 219°
2026-04-16 07:12 36.81182 123.70209 30261 ft 424 kts 218°
2026-04-16 07:13 36.76273 123.66112 30278 ft 424 kts 218°
2026-04-16 07:13 36.71375 123.62022 30287 ft 423 kts 218°
2026-04-16 07:14 36.67307 123.58638 30292 ft 423 kts 218°
2026-04-16 07:14 36.62430 123.54550 30274 ft 422 kts 218°
2026-04-16 07:15 36.57579 123.50440 30278 ft 422 kts 218°
2026-04-16 07:15 36.52726 123.46336 30278 ft 422 kts 218°
2026-04-16 07:16 36.47869 123.42258 30269 ft 421 kts 218°
2026-04-16 07:16 36.43147 123.37985 30265 ft 417 kts 226°
2026-04-16 07:17 36.39685 123.32308 30265 ft 412 kts 244°
2026-04-16 07:17 36.37403 123.25791 30268 ft 412 kts 247°
2026-04-16 07:18 36.35155 123.19301 30246 ft 412 kts 247°
2026-04-16 07:18 36.32874 123.12765 30262 ft 413 kts 246°
2026-04-16 07:19 36.30584 123.06185 30259 ft 413 kts 246°
2026-04-16 07:19 36.28323 122.99689 30259 ft 413 kts 246°
2026-04-16 07:20 36.26028 122.93118 30261 ft 413 kts 246°
2026-04-16 07:20 36.23760 122.86626 30279 ft 413 kts 246°
2026-04-16 07:21 36.21486 122.80093 30275 ft 413 kts 246°
2026-04-16 07:21 36.19197 122.73584 30277 ft 412 kts 246°
2026-04-16 07:22 36.16901 122.67075 30269 ft 412 kts 246°
2026-04-16 07:22 36.14611 122.60578 30276 ft 412 kts 246°
2026-04-16 07:23 36.12319 122.54090 30255 ft 411 kts 246°
2026-04-16 07:23 36.10024 122.47608 30246 ft 411 kts 246°
2026-04-16 07:24 36.07723 122.41133 30244 ft 411 kts 246°
2026-04-16 07:24 36.05420 122.34661 30256 ft 411 kts 246°
2026-04-16 07:25 36.03123 122.28193 30248 ft 411 kts 245°
2026-04-16 07:25 36.00818 122.21743 30232 ft 410 kts 245°
2026-04-16 07:26 35.98506 122.15297 30229 ft 411 kts 245°
2026-04-16 07:26 35.96188 122.08842 30231 ft 411 kts 245°
2026-04-16 07:27 35.93869 122.02390 30253 ft 411 kts 245°
2026-04-16 07:27 35.91553 121.95945 30254 ft 411 kts 245°
2026-04-16 07:28 35.89227 121.89498 30232 ft 411 kts 245°
2026-04-16 07:28 35.86890 121.83051 30224 ft 412 kts 245°
2026-04-16 07:29 35.84565 121.76646 30235 ft 412 kts 245°
2026-04-16 07:29 35.82223 121.70196 30232 ft 412 kts 245°
2026-04-16 07:30 35.79863 121.63707 30232 ft 412 kts 245°
2026-04-16 07:30 35.77531 121.57305 30220 ft 413 kts 245°
2026-04-16 07:31 35.75176 121.50854 30228 ft 413 kts 245°
2026-04-16 07:31 35.72814 121.44407 30229 ft 413 kts 245°
2026-04-16 07:32 35.70450 121.37960 30225 ft 413 kts 245°
2026-04-16 07:32 35.68080 121.31510 30226 ft 413 kts 244°
2026-04-16 07:33 35.65706 121.25068 30204 ft 414 kts 245°
2026-04-16 07:33 35.63325 121.18607 29924 ft 416 kts 244°
2026-04-16 07:33 35.62128 121.15370 29652 ft 417 kts 244°
2026-04-16 07:34 35.60923 121.12127 29380 ft 418 kts 244°
2026-04-16 07:34 35.59715 121.08876 29108 ft 419 kts 244°
2026-04-16 07:34 35.58503 121.05614 28836 ft 420 kts 244°
2026-04-16 07:34 35.57291 121.02352 28574 ft 421 kts 244°
2026-04-16 07:35 35.56073 120.99078 28307 ft 422 kts 244°
2026-04-16 07:35 35.54852 120.95793 28040 ft 423 kts 244°
2026-04-16 07:35 35.53627 120.92509 27789 ft 424 kts 244°
2026-04-16 07:35 35.52395 120.89218 27525 ft 425 kts 244°
2026-04-16 07:36 35.51161 120.85922 27271 ft 426 kts 244°
2026-04-16 07:36 35.49926 120.82616 27017 ft 427 kts 244°
2026-04-16 07:36 35.48821 120.79235 26763 ft 429 kts 251°
2026-04-16 07:36 35.48105 120.75674 26536 ft 431 kts 258°
2026-04-16 07:37 35.47732 120.72011 26283 ft 433 kts 261°
2026-04-16 07:37 35.47391 120.68341 26036 ft 434 kts 261°
2026-04-16 07:37 35.47213 120.64636 25793 ft 438 kts 270°
2026-04-16 07:37 35.47666 120.60922 25550 ft 444 kts 282°
2026-04-16 07:38 35.48798 120.57376 25313 ft 450 kts 294°
2026-04-16 07:38 35.50578 120.54195 25071 ft 456 kts 307°
2026-04-16 07:38 35.52933 120.51557 24846 ft 464 kts 320°
2026-04-16 07:38 35.55776 120.49624 24616 ft 471 kts 333°
2026-04-16 07:39 35.58826 120.48140 24386 ft 471 kts 334°
2026-04-16 07:39 35.61864 120.46671 24159 ft 469 kts 334°
2026-04-16 07:39 35.64899 120.45203 23934 ft 467 kts 334°
2026-04-16 07:39 35.67916 120.43738 23711 ft 466 kts 334°
2026-04-16 07:40 35.70919 120.42274 23483 ft 464 kts 334°
2026-04-16 07:40 35.73911 120.40813 23215 ft 462 kts 334°
2026-04-16 07:40 35.76890 120.39354 22962 ft 460 kts 334°
2026-04-16 07:40 35.79849 120.37903 22441 ft 456 kts 334°
2026-04-16 07:41 35.82758 120.36475 21551 ft 455 kts 334°
2026-04-16 07:41 35.85690 120.35037 20743 ft 453 kts 334°
2026-04-16 07:41 35.88610 120.33603 19940 ft 450 kts 334°
2026-04-16 07:41 35.91513 120.32175 19169 ft 448 kts 334°
2026-04-16 07:42 35.94398 120.30756 18439 ft 446 kts 334°
2026-04-16 07:42 35.97327 120.29490 17700 ft 446 kts 341°
2026-04-16 07:42 36.00366 120.28813 17090 ft 443 kts 351°
2026-04-16 07:42 36.03415 120.28461 16503 ft 437 kts 351°
2026-04-16 07:43 36.06422 120.28109 15931 ft 431 kts 351°
2026-04-16 07:43 36.09382 120.27758 15383 ft 425 kts 351°
2026-04-16 07:43 36.12307 120.27409 14827 ft 420 kts 352°
2026-04-16 07:43 36.15202 120.27063 14290 ft 416 kts 352°
2026-04-16 07:44 36.18072 120.26721 13720 ft 413 kts 352°
2026-04-16 07:44 36.20925 120.26381 13101 ft 410 kts 353°
2026-04-16 07:44 36.23752 120.26043 12495 ft 406 kts 353°
2026-04-16 07:44 36.26555 120.25707 11875 ft 404 kts 353°
2026-04-16 07:45 36.29316 120.25201 11252 ft 399 kts 345°
2026-04-16 07:45 36.31933 120.24211 11028 ft 385 kts 340°
2026-04-16 07:45 36.34429 120.23224 10904 ft 369 kts 341°
2026-04-16 07:45 36.36830 120.22295 10781 ft 355 kts 341°
2026-04-16 07:46 36.39144 120.21406 10658 ft 342 kts 341°
2026-04-16 07:46 36.41380 120.20544 10541 ft 330 kts 341°
2026-04-16 07:46 36.43534 120.19709 10405 ft 320 kts 341°
2026-04-16 07:46 36.45614 120.18898 10193 ft 314 kts 341°
2026-04-16 07:47 36.47692 120.18084 10064 ft 313 kts 341°
2026-04-16 07:47 36.49771 120.17266 9658 ft 317 kts 341°
2026-04-16 07:47 36.51888 120.16430 9236 ft 317 kts 341°
2026-04-16 07:47 36.53970 120.15611 8922 ft 313 kts 341°
2026-04-16 07:48 36.56046 120.14794 8354 ft 317 kts 341°
2026-04-16 07:48 36.58197 120.13948 7500 ft 331 kts 341°
2026-04-16 07:48 36.60298 120.12813 7103 ft 324 kts 321°
2026-04-16 07:48 36.61677 120.10755 6955 ft 302 kts 290°
2026-04-16 07:49 36.62074 120.08243 6240 ft 299 kts 261°
2026-04-16 07:49 36.61666 120.05693 5489 ft 303 kts 249°
2026-04-16 07:49 36.60944 120.03201 4788 ft 308 kts 244°
2026-04-16 07:49 36.60102 120.00797 4569 ft 293 kts 236°
2026-04-16 07:50 36.58738 119.99122 4499 ft 267 kts 204°
2026-04-16 07:50 36.56982 119.98694 4185 ft 254 kts 174°
2026-04-16 07:50 36.55320 119.99191 3846 ft 240 kts 159°
2026-04-16 07:50 36.53982 120.00243 3503 ft 217 kts 142°
2026-04-16 07:51 36.52707 120.01092 3243 ft 203 kts 163°
2026-04-16 07:51 36.51385 120.01569 2978 ft 194 kts 163°
2026-04-16 07:51 36.50122 120.02050 2746 ft 184 kts 162°
2026-04-16 07:51 36.48944 120.02510 2494 ft 172 kts 161°
2026-04-16 07:52 36.47829 120.02948 2263 ft 163 kts 161°
2026-04-16 07:52 36.46784 120.03360 2061 ft 151 kts 162°
2026-04-16 07:52 36.45816 120.03741 1860 ft 141 kts 161°
2026-04-16 07:52 36.44903 120.04100 1679 ft 135 kts 161°
2026-04-16 07:53 36.44012 120.04451 1483 ft 134 kts 161°
2026-04-16 07:53 36.43127 120.04800 1320 ft 132 kts 162°
2026-04-16 07:53 36.42252 120.05145 1132 ft 132 kts 161°
2026-04-16 07:53 36.41371 120.05491 955 ft 133 kts 162°
2026-04-16 07:54 36.40497 120.05837 832 ft 133 kts 162°
2026-04-16 07:54 36.39604 120.06186 602 ft 135 kts 161°
2026-04-16 07:54 36.38720 120.06529 433 ft 132 kts 162°
2026-04-16 07:54 36.37848 120.06871 218 ft 131 kts 161°
2026-04-16 07:55 36.36970 120.07220 56 ft 131 kts 162°
2026-04-16 07:55 36.36194 120.07521 39 ft 100 kts 161°
2026-04-16 07:55 36.35697 120.07719 37 ft 50 kts 162°
2026-04-16 07:55 36.35457 120.07812 37 ft 32 kts 162°
2026-04-16 07:56 36.35262 120.07927 35 ft 30 kts 141°
2026-04-16 07:56 36.35146 120.08083 36 ft 18 kts 100°
2026-04-16 07:56 36.35199 120.08215 36 ft 17 kts 19°
2026-04-16 07:56 36.35305 120.08184 37 ft 15 kts 342°
2026-04-16 07:57 36.35402 120.08146 37 ft 14 kts 342°
2026-04-16 07:57 36.35490 120.08112 37 ft 13 kts 342°
2026-04-16 07:57 36.35558 120.08149 36 ft 11 kts 38°
2026-04-16 07:57 36.35626 120.08152 36 ft 9 kts 347°
2026-04-16 07:58 36.35675 120.08183 37 ft 8 kts 58°
2026-04-16 07:58 36.35685 120.08216 37 ft 0 kts 71°